Content
SEND FEEDBACK

Daily
Averages
Monthly
Summary
United States of America

GLOSTER, LOUISIANA


Home > North America > United States > Louisiana
Elevation: 260 feet     Latitude: 32 12N     Longitude: 093 50W

WEATHER
 
SELECT A DAY
Number of Records: 206,015;   Date Range: 1/1/95 - 9/29/14
 
SHARE

PRINT THIS DATA

[ ← Previous Day ]
WEATHER ALMANAC - JANUARY 31, 2013
[ Next Day → ]
[ °C ]   °F
Weather ElementAverageHighLow
Temperature48.4 °F64 °F (2:56 pm)32 °F (4:56 am)
Dewpoint26.2 °F28.9 °F (8:56 am)21 °F (1:56 pm)
Humidity47.5 %82 % (1:56 am)20 % (1:56 pm)
Barometer30.20 in30.27 in (11:56 pm)30.16 in (2:56 pm)
Wind Speed7.7 mph13.8 mph (10:56 am)
Wind Gust23 mph (2:56 pm)
Weather ElementAverage
Visibility10 mi
Wind DirectionSSW (213.5 °)

Weather ElementTotal
Precipitation---
Heating Degree Days17 (Base 65)
Averaged from 23 records on January 31, 2013
WEATHER CONDITIONS BREAKOUT
WIND DIRECTION BREAKOUT
WEATHER BY HOUR - JANUARY 31, 2013
[ °C ]   °F
Local TimeTemperatureDewpointHumidityBarometerVisibilityWind DirectionWind SpeedGust SpeedPrecipitationEventsConditions
1:56 AM33.1 °F28.0 °F82 %30.17 in10.0 miSSW (210°)3.5 mphClear
2:56 AM34.0 °F27.0 °F75 %30.17 in10.0 miSSW (210°)4.6 mphClear
3:56 AM35.1 °F27.0 °F72 %30.17 in10.0 miSW (230°)6.9 mphClear
4:56 AM32.0 °F27.0 °F82 %30.17 in10.0 miWSW (250°)5.8 mphClear
5:56 AM33.1 °F26.1 °F75 %30.17 in10.0 miWSW (250°)5.8 mphClear
6:56 AM34.0 °F26.1 °F73 %30.18 in10.0 miSW (230°)6.9 mphClear
7:56 AM35.1 °F28.0 °F76 %30.22 in10.0 miCalmClear
8:56 AM43.0 °F28.9 °F58 %30.25 in10.0 miSW (230°)6.9 mphClear
9:56 AM51.1 °F25.0 °F36 %30.25 in10.0 miSW (230°)12.7 mphClear
10:56 AM55.0 °F24.1 °F30 %30.25 in10.0 miSW (230°)13.8 mph21.9 mphClear
11:56 AM57.9 °F26.1 °F30 %30.23 in10.0 miSW (230°)12.7 mphClear
12:56 PM61.0 °F24.1 °F24 %30.21 in10.0 miSW (220°)13.8 mph19.6 mphPartly Cloudy
1:56 PM63.0 °F21.0 °F20 %30.18 in10.0 miSW (230°)10.4 mphPartly Cloudy
2:56 PM64.0 °F21.9 °F20 %30.16 in10.0 miSW (220°)10.4 mph23.0 mphPartly Cloudy
3:56 PM64.0 °F24.1 °F22 %30.17 in10.0 miWSW (240°)10.4 mphPartly Cloudy
4:56 PM62.1 °F24.1 °F23 %30.17 in10.0 miSSW (210°)12.7 mphPartly Cloudy
5:56 PM57.9 °F24.1 °F27 %30.17 in10.0 miSSW (210°)8.1 mphPartly Cloudy
6:56 PM55.0 °F26.1 °F33 %30.19 in10.0 miSW (230°)3.5 mphPartly Cloudy
7:56 PM50.0 °F28.9 °F44 %30.22 in10.0 miSSW (210°)6.9 mphScattered Clouds
8:56 PM51.1 °F28.0 °F41 %30.24 in10.0 miSSW (210°)5.8 mphScattered Clouds
9:56 PM46.9 °F28.9 °F50 %30.25 in10.0 miSSW (210°)5.8 mphScattered Clouds
10:56 PM46.9 °F28.9 °F50 %30.25 in10.0 miSSW (210°)5.8 mphMostly Cloudy
11:56 PM46.9 °F28.9 °F50 %30.27 in10.0 miSSW (210°)3.5 mphMostly Cloudy
Hourly data recorded from KSHV, located miles away from Gloster, Louisiana







STORIES FROM OUR PARTNERS